EW0822 Weather Reports


time (UTC)temp
C
wind
direction
speed
KPH
gust
KPH
rain 1hr
cm
rain 24hr
cm
rain mn
cm
humidity
%
barometer
mb
20260509080043 16 49 0.0 0.0 0.00 0.00 0.00 66 1018.4
20260509074534 16 48 0.0 6.4 0.00 0.00 0.00 66 1018.4
20260509073052 15 47 0.0 0.0 0.00 0.00 0.00 70 1018.5
20260509071525 14 63 0.0 0.0 0.00 0.00 0.00 70 1018.5
20260509070022 13 65 0.0 3.2 0.00 0.00 0.00 72 1018.5
20260509064516 13 54 0.0 4.8 0.00 0.00 0.00 76 1018.4
20260509063014 12 69 0.0 0.0 0.00 0.00 0.00 78 1018.4
20260509061506 11 51 0.0 4.8 0.00 0.00 0.00 78 1018.5
20260509060003 11 57 0.0 0.0 0.00 0.00 0.00 78 1018.5
20260509054612 10 53 0.0 0.0 0.00 0.00 0.00 76 1018.5
20260509053057 9 53 0.0 0.0 0.00 0.00 0.00 74 1018.4
20260509051549 8 53 0.0 0.0 0.00 0.00 0.00 74 1018.3
20260509050045 7 53 0.0 0.0 0.00 0.00 0.00 74 1018.2
20260509044541 6 53 0.0 0.0 0.00 0.00 0.00 75 1018.0
20260509043043 6 53 0.0 0.0 0.00 0.00 0.00 75 1017.9
20260509041534 6 53 0.0 0.0 0.00 0.00 0.00 75 1017.8
20260509040043 7 53 0.0 0.0 0.00 0.00 0.00 75 1017.9
20260509034543 7 53 0.0 0.0 0.00 0.00 0.00 75 1017.9
20260509033029 7 53 0.0 0.0 0.00 0.00 0.00 75 1018.0
20260509031534 7 53 0.0 0.0 0.00 0.00 0.00 76 1018.2
20260509030025 7 53 0.0 0.0 0.00 0.00 0.00 75 1018.2
20260509024525 7 53 0.0 0.0 0.00 0.00 0.00 75 1018.2
20260509023024 7 53 0.0 0.0 0.00 0.00 0.00 75 1018.3
20260509021532 7 53 0.0 0.0 0.00 0.00 0.00 75 1018.3
20260509020022 7 53 0.0 0.0 0.00 0.00 0.00 76 1018.3
20260509014520 7 53 0.0 0.0 0.00 0.00 0.00 77 1018.2
20260509013020 7 53 0.0 0.0 0.00 0.00 0.00 78 1018.4
20260509011524 8 53 0.0 0.0 0.00 0.00 0.00 79 1018.4
20260509010019 8 53 0.0 0.0 0.00 0.00 0.00 79 1018.3
20260509004510 9 53 0.0 0.0 0.00 0.00 0.00 80 1018.3
20260509003017 9 53 0.0 0.0 0.00 0.00 0.00 79 1018.4
20260509001505 10 53 0.0 0.0 0.00 0.00 0.00 79 1018.3
20260509000003 10 53 0.0 0.0 0.00 0.00 0.00 79 1018.4
20260508234556 10 57 0.0 0.0 0.00 0.00 0.00 79 1018.3
20260508233055 10 60 0.0 3.2 0.00 0.00 0.00 79 1018.3
20260508231555 10 53 0.0 8.0 0.00 0.00 0.00 79 1018.2
20260508230058 10 76 0.0 1.6 0.00 0.00 0.00 79 1018.1
20260508224547 10 104 0.0 0.0 0.00 0.00 0.00 79 1018.1
20260508223051 10 121 0.0 0.0 0.00 0.00 0.00 79 1018.2
20260508221526 10 121 0.0 0.0 0.00 0.00 0.00 79 1018.2
20260508220025 10 121 0.0 0.0 0.00 0.00 0.00 79 1018.1
20260508214526 10 121 0.0 0.0 0.00 0.00 0.00 79 1018.0
20260508213031 11 121 0.0 0.0 0.00 0.00 0.00 78 1018.0
20260508211538 11 121 0.0 0.0 0.00 0.00 0.00 78 1018.0
20260508210021 11 121 0.0 0.0 0.00 0.00 0.00 77 1017.9
20260508204530 11 121 0.0 0.0 0.00 0.00 0.00 76 1017.9
20260508203020 11 121 0.0 0.0 0.00 0.00 0.00 74 1017.9
20260508201520 12 121 0.0 0.0 0.00 0.00 0.00 71 1017.9
20260508200018 13 121 0.0 0.0 0.00 0.00 0.00 69 1017.8
20260508194518 13 121 0.0 0.0 0.00 0.00 0.00 67 1017.6
20260508193017 14 121 0.0 0.0 0.00 0.00 0.00 62 1017.5
20260508191517 15 121 0.0 0.0 0.00 0.00 0.00 59 1017.3
20260508190023 16 121 0.0 0.0 0.00 0.00 0.00 54 1017.1
20260508184516 16 121 0.0 0.0 0.00 0.00 0.00 51 1017.0
20260508183016 17 121 0.0 0.0 0.00 0.00 0.00 48 1016.8
20260508181514 17 121 0.0 0.0 0.00 0.00 0.00 48 1016.7
20260508180019 17 121 0.0 0.0 0.00 0.00 0.00 45 1016.6
20260508174513 17 123 0.0 0.0 0.00 0.00 0.00 46 1016.5
20260508173013 18 178 0.0 0.0 0.00 0.00 0.00 46 1016.5
20260508171514 18 111 0.0 0.0 0.00 0.00 0.00 45 1016.4
20260508170011 18 65 0.0 0.0 0.00 0.00 0.00 43 1016.4
20260508164513 18 284 0.0 0.0 0.00 0.00 0.00 44 1016.3
20260508163009 18 259 0.0 0.0 0.00 0.00 0.00 43 1016.4
20260508161508 18 205 0.0 0.0 0.00 0.00 0.00 43 1016.4
20260508160012 18 208 0.0 4.8 0.00 0.00 0.00 44 1016.5
20260508154506 18 5 0.0 0.0 0.00 0.00 0.00 44 1016.5
20260508153006 18 355 0.0 0.0 0.00 0.00 0.00 44 1016.6
20260508151502 17 355 0.0 0.0 0.00 0.00 0.00 45 1016.7
20260508150100 17 257 0.0 0.0 0.00 0.00 0.00 47 1016.7
20260508144558 17 60 0.0 0.0 0.00 0.00 0.00 50 1016.8
20260508143108 17 192 0.0 0.0 0.00 0.00 0.00 52 1016.9
20260508141605 17 44 0.0 1.6 0.00 0.00 0.00 50 1017.1
20260508140056 16 204 0.0 0.0 0.00 0.00 0.00 53 1017.1
20260508134555 16 40 0.0 4.8 0.00 0.00 0.00 53 1017.1
20260508133100 16 50 0.0 0.0 0.00 0.00 0.00 50 1017.1
20260508131554 17 47 0.0 0.0 0.00 0.00 0.00 49 1017.2
20260508130057 17 47 0.0 0.0 0.00 0.00 0.00 49 1017.3
20260508124556 17 63 0.0 0.0 0.00 0.00 0.00 51 1017.3
20260508123052 17 57 0.0 0.0 0.00 0.00 0.00 50 1017.4
20260508121603 17 55 0.0 0.0 0.00 0.00 0.00 50 1017.3
20260508120050 17 54 0.0 0.0 0.00 0.00 0.00 51 1017.3
20260508114549 17 54 0.0 0.0 0.00 0.00 0.00 50 1017.3
20260508113049 17 54 0.0 0.0 0.00 0.00 0.00 50 1017.3
20260508111547 17 54 0.0 0.0 0.00 0.00 0.00 53 1017.3
20260508110052 16 53 0.0 0.0 0.00 0.00 0.00 53 1017.3
20260508104546 17 53 0.0 0.0 0.00 0.00 0.00 53 1017.4
20260508103046 17 103 0.0 6.4 0.00 0.00 0.00 54 1017.5
20260508101543 17 25 0.0 1.6 0.00 0.00 0.00 57 1017.5
20260508100040 17 33 0.0 0.0 0.00 0.00 0.00 60 1017.6
20260508094538 16 57 0.0 4.8 0.00 0.00 0.00 61 1017.7
20260508093033 15 60 0.0 0.0 0.00 0.00 0.00 65 1017.7
20260508091528 15 66 0.0 0.0 0.00 0.00 0.00 69 1017.8
20260508090024 14 49 0.0 0.0 0.00 0.00 0.00 73 1017.9
20260508084523 13 46 0.0 1.6 0.00 0.00 0.00 73 1017.9
20260508083114 13 75 0.0 0.0 0.00 0.00 0.00 76 1017.9
20260508081510 12 41 0.0 4.8 0.00 0.00 0.00 76 1017.9